Vorticity
20 12 11 13 9 1 3 8 4 3 8 7 7 6 4 7 7 7 8 4 6 4 5 5 5 4 4 6 3 3 4 7 5 3 5 4 3 4 6 4 8 8 7 1
11 15 8 9 21 15 -3 4 15 17 6 7 3 9 7 8 7 5 5 6 5 5 7 8 5 7 7 8 8 9 9 10 9 6 4 5 7 8 6 5 4 1 4 -5
46 14 9 16 10 2 11 18 12 7 11 16 11 8 4 5 6 8 7 4 5 5 5 8 10 7 6 5 6 5 6 5 6 6 8 7 7 7 6 6 3 12 -5 6
15 28 39 20 8 16 8 13 10 6 6 9 12 14 10 9 13 4 -6 11 8 7 7 4 5 4 5 5 5 5 5 4 6 3 4 2 3 2 2 0 8 1 5 -1
-1 -3 13 26 35 19 16 5 2 5 3 10 14 12 13 19 8 2 19 1 -7 -5 0 -5 0 -5 -3 -8 -2 3 2 2 3 4 1 6 1 6 8 8 8 7 9 10
19 10 15 18 17 19 22 28 24 11 12 19 12 9 12 9 14 20 15 15 16 17 16 19 19 20 18 15 15 13 4 16 24 21 17 13 13 16 15 13 8 10 18 14
10 6 11 14 12 10 11 16 17 20 22 15 18 21 21 20 17 16 15 18 15 13 15 16 15 13 13 14 18 16 18 17 12 7 15 3 19 18 15 8 8 18 6 -0
17 30 14 9 -2 -1 0 5 14 15 15 16 18 16 17 15 14 17 14 10 4 6 8 14 12 13 19 18 20 19 19 16 14 11 10 -2 -0 0 5 7 8 9 14 2
2 13 12 8 -2 18 15 16 6 12 12 17 19 23 22 21 17 14 12 14 16 18 14 12 6 0 -2 -1 -2 -2 1 2 1 2 3 11 15 12 9 6 1 6 3 -0
15 6 23 13 5 9 3 14 11 1 7 14 9 11 13 13 15 20 21 20 18 17 15 12 14 15 21 20 18 19 19 18 12 19 17 36 25 19 20 35 19 14 17 22
4 -7 1 9 25 6 15 11 19 7 7 11 10 8 8 10 13 11 8 9 13 18 15 14 15 22 19 21 15 19 18 19 12 21 22 31 16 14 13 15 25 32 27 28
-1 -21 23 13 11 18 20 10 12 22 13 14 2 15 24 11 9 6 7 9 11 10 11 14 14 18 16 15 16 11 18 12 12 0 1 10 -1 -5 -10 -8 -12 -7 -1 13
50 24 -18 -8 1 -1 7 10 7 3 7 13 25 9 -7 -7 2 6 8 9 10 7 6 12 10 12 16 18 21 21 17 13 13 10 4 13 12 12 15 16 16 19 17 13
16 39 5 -8 -8 -2 9 -13 18 14 11 11 3 7 16 20 18 6 11 -2 10 11 19 10 7 12 7 7 9 9 7 11 15 14 13 7 7 9 5 1 1 1 2 5
23 27 29 -12 12 -1 -10 21 -3 4 10 12 9 6 6 10 9 8 14 21 20 20 18 6 6 9 14 18 13 14 14 11 11 12 4 4 6 5 4 2 1 3 16 26
21 7 18 25 23 9 9 19 -7 6 8 4 2 -1 -3 5 16 23 25 20 5 6 13 11 21 14 9 12 13 6 6 -1 -6 0 5 5 14 29 38 46 45 45 34 40
16 24 38 29 24 -4 26 9 5 -6 -6 4 9 7 -1 5 14 12 8 18 21 17 18 9 9 -12 2 2 5 18 2 10 10 24 24 29 29 20 21 29 29 26 25 39
13 15 16 11 21 30 29 21 21 15 13 8 -1 4 26 35 25 22 22 16 11 15 15 21 16 6 3 9 11 17 23 22 13 17 22 21 20 20 14 18 11 -2 -7 7
18 18 14 14 9 0 7 13 16 14 16 19 20 13 10 26 15 14 9 5 5 4 -4 -9 -6 4 5 13 33 20 10 9 8 16 30 41 22 12 7 6 -3 4 17 19
32 29 22 26 36 28 24 18 23 21 24 32 36 12 9 20 -1 -2 5 3 1 0 5 6 19 19 35 26 9 6 7 5 2 8 12 19 13 9 2 6 -4 12 9 20
7 6 9 7 7 13 20 20 18 19 22 13 11 6 7 12 1 5 8 8 -1 8 15 20 19 10 0 2 8 12 11 9 8 3 10 12 12 6 5 4 6 9 4 13
7 7 7 8 7 6 9 4 3 7 9 12 8 3 6 10 9 6 5 11 11 5 4 5 3 4 6 8 5 8 10 8 5 6 6 7 7 7 7 10 10 3 2 8
5 5 6 6 7 16 12 6 4 6 7 7 5 8 11 6 7 5 7 4 5 6 3 2 5 6 9 18 11 7 8 11 12 11 11 9 6 5 3 4 4 1 5 7
6 5 5 5 8 11 3 7 9 6 8 9 8 8 11 10 7 8 7 -2 7 1 6 9 14 15 13 12 11 11 11 11 12 10 6 7 9 9 7 6 4 5 5 5
6 5 5 8 9 6 5 6 7 4 6 7 7 6 8 7 7 9 9 8 6 13 16 16 11 11 12 11 9 7 6 5 5 3 -1 7 19 12 5 4 4 5 6 3
6 8 11 9 8 6 7 6 4 5 5 6 4 3 6 4 5 6 9 14 13 16 16 16 15 15 16 19 22 22 20 20 19 22 18 14 15 20 19 18 19 16 13 13
11 12 9 9 10 9 10 9 8 7 9 8 7 10 8 7 6 18 21 21 20 19 18 16 14 14 14 14 14 15 15 15 16 15 14 13 14 14 14 14 12 13 15 15
Height
5572 5580 5586 5592 5602 5610 5618 5626 5632 5641 5645 5650 5656 5661 5667 5671 5675 5683 5682 5685 5690 5695 5699 5701 5706 5708 5711 5712 5712 5713 5714 5714 5714 5717 5716 5716 5718 5720 5718 5715 5718 5714 5710 5708
5557 5564 5572 5578 5586 5595 5603 5612 5619 5624 5630 5634 5641 5648 5653 5655 5658 5660 5669 5670 5673 5679 5684 5685 5688 5694 5696 5697 5698 5698 5699 5699 5702 5702 5703 5702 5703 5706 5705 5701 5700 5697 5697 5696
5542 5549 5557 5564 5572 5580 5588 5597 5604 5610 5615 5622 5628 5633 5637 5640 5643 5645 5649 5655 5659 5661 5665 5670 5672 5675 5677 5680 5682 5682 5680 5683 5685 5690 5690 5687 5686 5688 5688 5682 5680 5683 5678 5684
5534 5537 5542 5549 5556 5564 5573 5580 5588 5595 5600 5605 5612 5618 5622 5626 5629 5632 5634 5637 5641 5646 5648 5652 5656 5656 5659 5662 5666 5666 5663 5665 5665 5673 5671 5668 5671 5674 5669 5660 5664 5657 5670 5663
5527 5531 5534 5536 5541 5548 5558 5566 5574 5579 5585 5589 5595 5601 5605 5609 5612 5617 5619 5622 5623 5625 5630 5633 5635 5641 5643 5645 5647 5648 5645 5647 5646 5650 5651 5647 5649 5654 5650 5647 5646 5641 5642 5644
5517 5522 5527 5529 5531 5535 5540 5548 5556 5562 5568 5574 5581 5584 5587 5593 5598 5601 5604 5606 5608 5610 5611 5614 5618 5622 5624 5625 5626 5626 5626 5626 5624 5625 5631 5627 5631 5633 5630 5629 5625 5624 5624 5626
5506 5513 5517 5521 5523 5527 5531 5537 5542 5549 5554 5560 5565 5569 5574 5576 5579 5585 5588 5589 5591 5592 5594 5597 5599 5601 5604 5607 5607 5609 5609 5609 5607 5608 5610 5608 5610 5609 5608 5605 5607 5605 5604 5604
5496 5501 5507 5512 5516 5519 5523 5527 5532 5537 5541 5546 5550 5554 5559 5562 5565 5570 5572 5572 5574 5575 5579 5582 5583 5584 5586 5587 5589 5591 5593 5592 5590 5591 5592 5593 5593 5592 5593 5588 5586 5586 5583 5584
5487 5491 5496 5502 5507 5511 5514 5518 5522 5526 5530 5535 5537 5541 5546 5549 5552 5555 5555 5556 5559 5561 5563 5565 5567 5571 5572 5573 5575 5576 5577 5576 5575 5575 5571 5571 5577 5573 5573 5568 5568 5566 5563 5562
5477 5482 5487 5492 5497 5501 5506 5511 5513 5516 5521 5525 5527 5530 5534 5537 5538 5541 5541 5542 5547 5546 5547 5551 5552 5555 5554 5558 5559 5558 5557 5557 5556 5553 5549 5548 5551 5550 5550 5548 5552 5547 5545 5545
5467 5474 5479 5483 5488 5492 5496 5501 5504 5507 5510 5513 5517 5520 5524 5524 5525 5528 5529 5532 5535 5532 5536 5537 5538 5539 5541 5544 5544 5541 5540 5539 5542 5539 5537 5537 5535 5533 5531 5527 5529 5524 5523 5522
5460 5466 5471 5476 5480 5484 5488 5492 5494 5497 5500 5506 5507 5511 5512 5512 5514 5517 5518 5520 5523 5523 5523 5525 5522 5526 5527 5529 5530 5528 5530 5527 5525 5527 5526 5523 5520 5516 5515 5511 5510 5508 5507 5505
5452 5457 5464 5468 5473 5476 5479 5483 5485 5487 5491 5495 5501 5504 5501 5503 5504 5504 5507 5511 5510 5512 5511 5512 5513 5512 5515 5515 5516 5516 5515 5513 5511 5508 5512 5505 5500 5501 5495 5493 5492 5490 5488 5489
5444 5449 5455 5461 5465 5469 5471 5475 5478 5479 5481 5485 5491 5491 5492 5492 5493 5495 5496 5499 5500 5499 5499 5499 5500 5502 5503 5503 5503 5505 5506 5502 5498 5493 5496 5485 5492 5486 5479 5478 5476 5473 5470 5468
5437 5442 5448 5452 5456 5460 5464 5468 5470 5471 5473 5477 5481 5482 5483 5484 5485 5485 5486 5487 5487 5487 5488 5488 5489 5490 5490 5490 5490 5493 5497 5490 5483 5478 5478 5471 5473 5469 5465 5463 5460 5456 5452 5453
5432 5436 5439 5444 5448 5452 5455 5459 5463 5463 5464 5466 5470 5474 5475 5475 5475 5476 5477 5477 5476 5477 5477 5478 5478 5478 5478 5477 5478 5490 5483 5474 5467 5463 5460 5456 5454 5451 5446 5441 5437 5434 5431 5431
5429 5431 5435 5438 5442 5445 5449 5453 5455 5455 5456 5458 5459 5462 5466 5466 5465 5466 5466 5465 5466 5467 5469 5471 5470 5468 5464 5465 5469 5480 5465 5458 5453 5449 5444 5441 5437 5435 5432 5429 5426 5423 5421 5421
5429 5431 5433 5435 5437 5439 5442 5445 5446 5447 5448 5449 5449 5453 5456 5455 5454 5454 5455 5456 5456 5457 5457 5459 5459 5457 5454 5454 5460 5454 5448 5444 5441 5437 5431 5427 5425 5424 5423 5421 5419 5417 5415 5414
5428 5430 5432 5433 5434 5435 5436 5438 5439 5441 5442 5441 5444 5446 5447 5446 5446 5447 5448 5447 5447 5447 5448 5450 5448 5446 5444 5446 5442 5437 5435 5433 5430 5425 5418 5414 5414 5415 5415 5413 5411 5409 5406 5403
5429 5429 5430 5430 5430 5430 5432 5433 5433 5434 5434 5436 5438 5440 5440 5441 5441 5440 5440 5439 5437 5434 5438 5437 5434 5432 5435 5432 5429 5426 5423 5422 5420 5416 5411 5408 5407 5407 5405 5404 5402 5399 5396 5392
5432 5431 5431 5431 5431 5431 5431 5431 5431 5431 5432 5432 5433 5433 5433 5434 5432 5432 5429 5427 5426 5424 5426 5426 5422 5422 5426 5423 5421 5418 5415 5412 5409 5406 5404 5401 5399 5397 5396 5394 5392 5390 5387 5384
5433 5432 5431 5431 5431 5430 5430 5429 5429 5428 5428 5428 5426 5425 5424 5424 5424 5423 5422 5421 5418 5416 5415 5413 5412 5415 5413 5411 5409 5406 5404 5401 5398 5395 5393 5391 5389 5387 5385 5383 5381 5379 5377 5376
5431 5430 5430 5430 5430 5429 5428 5426 5425 5425 5424 5423 5423 5422 5421 5419 5418 5415 5413 5410 5408 5406 5403 5401 5401 5400 5398 5396 5394 5391 5389 5387 5385 5383 5380 5378 5376 5375 5373 5371 5369 5368 5366 5365
5427 5426 5426 5425 5426 5425 5423 5422 5421 5420 5419 5417 5416 5414 5413 5411 5408 5406 5401 5398 5394 5391 5389 5388 5388 5385 5382 5380 5378 5376 5374 5371 5369 5368 5366 5364 5362 5360 5358 5357 5356 5354 5353 5353
5422 5421 5420 5420 5420 5418 5417 5416 5414 5413 5411 5410 5408 5406 5404 5400 5397 5394 5390 5386 5382 5379 5376 5374 5370 5367 5364 5362 5360 5358 5356 5354 5352 5350 5348 5346 5344 5343 5342 5339 5338 5337 5338 5339
5414 5413 5414 5413 5411 5410 5409 5407 5406 5404 5402 5400 5397 5394 5391 5388 5384 5380 5375 5372 5368 5365 5361 5358 5354 5351 5348 5346 5343 5340 5337 5335 5332 5329 5327 5325 5323 5322 5323 5322 5320 5318 5319 5321
5406 5405 5404 5402 5401 5400 5398 5397 5396 5394 5391 5388 5385 5382 5379 5375 5370 5367 5363 5358 5354 5351 5347 5343 5339 5336 5334 5331 5328 5324 5321 5317 5314 5311 5307 5305 5303 5301 5302 5302 5301 5299 5300 5301